Location: Boda
(47.1872°N, 9.5454°E)
Time: 09:18:55
(UTC+00:00)

Cosmos 2082 - Pass Details

Date: 14 May 2021
Orbit: 832 x 856 km, 71.0° (Epoch: 16 June)

Event Time Altitude Azimuth Distance (km) Brightness Sun altitude
Rises 02:10:25 0° 328° (NNW) 3,417 7.1 -13.6°
Reaches altitude 10° 02:12:57 10° 323° (NW) 2,481 6.3 -13.4°
Maximum altitude 02:18:21 46° 252° (WSW) 1,136 4.0 -12.7°
Drops below altitude 10° 02:23:45 10° 180° (S) 2,478 5.7 -12.1°
Enters shadow 02:26:00 - 175° (S) 3,307 6.4 -11.8°
